CHOP21 YPED-YPED

Flight info

Callsign CHOP21
Flight time 0h 47m
Altitude 1500
Route YPED VFR
Aircraft A139/L-G/C

Departure

Time 2026-04-21 10:33
Airport RAAF Base Edinburgh (YPED)

Arrival

Time 2026-04-21 11:21
Airport RAAF Base Edinburgh (YPED)
Time Latitude Longitude Altitude Speed Heading
2026-04-21 10:33 -34.78131 138.59106 1240 ft 104 kts 192°
2026-04-21 10:33 -34.78821 138.58911 1358 ft 102 kts 191°
2026-04-21 10:33 -34.79534 138.58725 1287 ft 107 kts 190°
2026-04-21 10:34 -34.80275 138.58552 1184 ft 111 kts 192°
2026-04-21 10:34 -34.81067 138.58382 990 ft 120 kts 189°
2026-04-21 10:34 -34.81910 138.58240 796 ft 124 kts 187°
2026-04-21 10:34 -34.82761 138.58112 673 ft 123 kts 187°
2026-04-21 10:35 -34.83603 138.57979 592 ft 124 kts 188°
2026-04-21 10:35 -34.84466 138.57836 574 ft 126 kts 188°
2026-04-21 10:35 -34.85347 138.57692 564 ft 129 kts 188°
2026-04-21 10:35 -34.86243 138.57547 532 ft 131 kts 188°
2026-04-21 10:36 -34.87151 138.57400 497 ft 132 kts 187°
2026-04-21 10:36 -34.88017 138.57262 648 ft 120 kts 187°
2026-04-21 10:36 -34.88833 138.57140 833 ft 116 kts 187°
2026-04-21 10:36 -34.89635 138.57007 961 ft 117 kts 188°
2026-04-21 10:37 -34.90438 138.56874 1104 ft 116 kts 187°
2026-04-21 10:37 -34.91231 138.56742 1223 ft 117 kts 187°
2026-04-21 10:37 -34.92037 138.56607 1349 ft 117 kts 187°
2026-04-21 10:37 -34.92845 138.56471 1466 ft 118 kts 188°
2026-04-21 10:38 -34.93706 138.56330 1441 ft 129 kts 187°
2026-04-21 10:38 -34.94611 138.56186 1436 ft 133 kts 187°
2026-04-21 10:38 -34.95534 138.56040 1439 ft 134 kts 187°
2026-04-21 10:38 -34.96464 138.55891 1442 ft 136 kts 187°
2026-04-21 10:39 -34.97407 138.55739 1441 ft 137 kts 187°
2026-04-21 10:39 -34.98354 138.55590 1442 ft 137 kts 187°
2026-04-21 10:39 -34.99303 138.55442 1442 ft 137 kts 187°
2026-04-21 10:39 -35.00249 138.55292 1443 ft 137 kts 187°
2026-04-21 10:40 -35.01195 138.55142 1444 ft 137 kts 187°
2026-04-21 10:40 -35.02145 138.54993 1443 ft 138 kts 187°
2026-04-21 10:40 -35.03096 138.54844 1442 ft 137 kts 187°
2026-04-21 10:40 -35.04031 138.54694 1443 ft 137 kts 187°
2026-04-21 10:41 -35.04981 138.54541 1443 ft 138 kts 187°
2026-04-21 10:41 -35.05933 138.54387 1443 ft 138 kts 187°
2026-04-21 10:41 -35.06881 138.54237 1442 ft 137 kts 187°
2026-04-21 10:41 -35.07826 138.54089 1442 ft 136 kts 187°
2026-04-21 10:42 -35.08769 138.53939 1445 ft 137 kts 187°
2026-04-21 10:42 -35.09703 138.53789 1443 ft 138 kts 187°
2026-04-21 10:42 -35.10652 138.53638 1441 ft 137 kts 187°
2026-04-21 10:42 -35.11602 138.53488 1443 ft 137 kts 187°
2026-04-21 10:43 -35.12550 138.53337 1445 ft 137 kts 187°
2026-04-21 10:43 -35.13498 138.53185 1443 ft 138 kts 187°
2026-04-21 10:43 -35.14447 138.53035 1443 ft 138 kts 187°
2026-04-21 10:43 -35.15401 138.52885 1443 ft 138 kts 187°
2026-04-21 10:44 -35.16354 138.52734 1443 ft 138 kts 187°
2026-04-21 10:44 -35.17296 138.52583 1443 ft 139 kts 187°
2026-04-21 10:44 -35.18268 138.52428 1443 ft 139 kts 187°
2026-04-21 10:44 -35.19224 138.52278 1441 ft 138 kts 187°
2026-04-21 10:45 -35.20136 138.52000 1437 ft 136 kts 203°
2026-04-21 10:45 -35.20923 138.51370 1446 ft 135 kts 223°
2026-04-21 10:45 -35.21486 138.50456 1446 ft 135 kts 242°
2026-04-21 10:45 -35.21761 138.49361 1443 ft 135 kts 262°
2026-04-21 10:46 -35.21710 138.48221 1443 ft 135 kts 282°
2026-04-21 10:46 -35.21341 138.47174 1443 ft 135 kts 301°
2026-04-21 10:46 -35.20692 138.46336 1442 ft 137 kts 321°
2026-04-21 10:46 -35.19846 138.45821 1441 ft 137 kts 341°
2026-04-21 10:47 -35.18903 138.45691 1444 ft 138 kts
2026-04-21 10:47 -35.17970 138.45964 1444 ft 139 kts 20°
2026-04-21 10:47 -35.17124 138.46545 1447 ft 140 kts 28°
2026-04-21 10:47 -35.16284 138.47164 1445 ft 141 kts 28°
2026-04-21 10:48 -35.15439 138.47786 1444 ft 142 kts 28°
2026-04-21 10:48 -35.14602 138.48400 1443 ft 142 kts 28°
2026-04-21 10:48 -35.13752 138.49021 1442 ft 142 kts 28°
2026-04-21 10:48 -35.12906 138.49642 1444 ft 142 kts 28°
2026-04-21 10:49 -35.12057 138.50266 1444 ft 143 kts 28°
2026-04-21 10:49 -35.11205 138.50889 1440 ft 142 kts 28°
2026-04-21 10:49 -35.10362 138.51507 1443 ft 141 kts 28°
2026-04-21 10:49 -35.09526 138.52122 1454 ft 140 kts 28°
2026-04-21 10:50 -35.08976 138.52528 1465 ft 139 kts 28°
2026-04-21 10:50 -35.07868 138.53341 1493 ft 139 kts 28°
2026-04-21 10:50 -35.07044 138.53947 1521 ft 138 kts 28°
2026-04-21 10:50 -35.06498 138.54350 1524 ft 138 kts 28°
2026-04-21 10:51 -35.05678 138.54957 1540 ft 138 kts 28°
2026-04-21 10:51 -35.04593 138.55759 1567 ft 137 kts 28°
2026-04-21 10:51 -35.03757 138.56329 1596 ft 137 kts 22°
2026-04-21 10:51 -35.02872 138.56752 1620 ft 136 kts 14°
2026-04-21 10:52 -35.02248 138.56937 1633 ft 137 kts
2026-04-21 10:52 -35.01306 138.57130 1575 ft 142 kts
2026-04-21 10:52 -35.00319 138.57335 1479 ft 146 kts
2026-04-21 10:52 -34.99308 138.57546 1376 ft 149 kts
2026-04-21 10:53 -34.98314 138.57755 1395 ft 141 kts
2026-04-21 10:53 -34.97362 138.57956 1397 ft 137 kts
2026-04-21 10:53 -34.96434 138.58153 1395 ft 134 kts
2026-04-21 10:53 -34.95517 138.58350 1396 ft 133 kts
2026-04-21 10:54 -34.94609 138.58549 1392 ft 132 kts
2026-04-21 10:54 -34.93711 138.58748 1393 ft 131 kts
2026-04-21 10:54 -34.92817 138.58944 1392 ft 131 kts
2026-04-21 10:54 -34.91922 138.59139 1392 ft 131 kts
2026-04-21 10:55 -34.91026 138.59334 1391 ft 130 kts
2026-04-21 10:55 -34.90145 138.59527 1393 ft 130 kts
2026-04-21 10:55 -34.89243 138.59724 1393 ft 130 kts
2026-04-21 10:55 -34.88361 138.59917 1393 ft 131 kts
2026-04-21 10:56 -34.87466 138.60112 1391 ft 130 kts
2026-04-21 10:56 -34.86576 138.60309 1392 ft 130 kts
2026-04-21 10:56 -34.85684 138.60505 1393 ft 131 kts
2026-04-21 10:56 -34.84786 138.60702 1392 ft 131 kts
2026-04-21 10:57 -34.83884 138.60897 1388 ft 131 kts
2026-04-21 10:57 -34.82999 138.61087 1384 ft 130 kts
2026-04-21 10:57 -34.82157 138.61258 1248 ft 111 kts
2026-04-21 10:57 -34.81474 138.61345 1077 ft 86 kts 358°
2026-04-21 10:58 -34.80944 138.61407 883 ft 70 kts 359°
2026-04-21 10:58 -34.80494 138.61525 640 ft 65 kts 14°
2026-04-21 10:58 -34.80116 138.61841 472 ft 69 kts 45°
2026-04-21 10:58 -34.79892 138.62364 410 ft 72 kts 74°
2026-04-21 10:59 -34.79903 138.62976 355 ft 74 kts 105°
2026-04-21 10:59 -34.80166 138.63520 350 ft 76 kts 136°
2026-04-21 10:59 -34.80627 138.63840 402 ft 78 kts 166°
2026-04-21 10:59 -34.81173 138.63842 490 ft 80 kts 195°
2026-04-21 11:00 -34.81669 138.63518 587 ft 83 kts 221°
2026-04-21 11:00 -34.82002 138.62945 679 ft 84 kts 247°
2026-04-21 11:00 -34.82122 138.62235 759 ft 89 kts 264°
2026-04-21 11:00 -34.82187 138.61451 907 ft 98 kts 263°
2026-04-21 11:01 -34.82255 138.60592 1023 ft 105 kts 263°
2026-04-21 11:01 -34.82325 138.59665 1014 ft 117 kts 263°
2026-04-21 11:01 -34.82399 138.58643 1009 ft 122 kts 263°
2026-04-21 11:02 -34.82547 138.56556 1010 ft 126 kts 263°
2026-04-21 11:02 -34.82623 138.55487 1011 ft 127 kts 263°
2026-04-21 11:02 -34.82700 138.54417 1014 ft 127 kts 264°
2026-04-21 11:02 -34.82636 138.53342 1013 ft 128 kts 282°
2026-04-21 11:03 -34.82272 138.52348 1010 ft 129 kts 302°
2026-04-21 11:03 -34.81650 138.51566 1013 ft 130 kts 321°
2026-04-21 11:03 -34.80837 138.51082 1012 ft 131 kts 341°
2026-04-21 11:03 -34.79943 138.50963 1012 ft 132 kts
2026-04-21 11:04 -34.79048 138.51223 1013 ft 133 kts 20°
2026-04-21 11:04 -34.78261 138.51849 1013 ft 135 kts 40°
2026-04-21 11:04 -34.77697 138.52744 1014 ft 136 kts 60°
2026-04-21 11:04 -34.77397 138.53838 1013 ft 137 kts 79°
2026-04-21 11:05 -34.77410 138.54991 1012 ft 137 kts 99°
2026-04-21 11:05 -34.77732 138.56069 1011 ft 135 kts 119°
2026-04-21 11:05 -34.78323 138.56944 1013 ft 134 kts 139°
2026-04-21 11:05 -34.79115 138.57521 1014 ft 133 kts 159°
2026-04-21 11:06 -34.80015 138.57738 1014 ft 132 kts 179°
2026-04-21 11:06 -34.80913 138.57571 1013 ft 131 kts 199°
2026-04-21 11:06 -34.81704 138.57041 1013 ft 130 kts 219°
2026-04-21 11:06 -34.82308 138.56238 1014 ft 129 kts 231°
2026-04-21 11:07 -34.82865 138.55380 1013 ft 129 kts 231°
2026-04-21 11:07 -34.83423 138.54520 1015 ft 130 kts 231°
2026-04-21 11:07 -34.83987 138.53656 1014 ft 131 kts 231°
2026-04-21 11:07 -34.84554 138.52788 1013 ft 131 kts 231°
2026-04-21 11:08 -34.85116 138.51932 1012 ft 131 kts 231°
2026-04-21 11:08 -34.85678 138.51069 1012 ft 130 kts 231°
2026-04-21 11:08 -34.86242 138.50205 1014 ft 130 kts 231°
2026-04-21 11:08 -34.86807 138.49338 1013 ft 131 kts 231°
2026-04-21 11:09 -34.87374 138.48471 1013 ft 131 kts 231°
2026-04-21 11:09 -34.87939 138.47604 1012 ft 130 kts 231°
2026-04-21 11:09 -34.88501 138.46740 1013 ft 130 kts 231°
2026-04-21 11:09 -34.89064 138.45873 1013 ft 131 kts 231°
2026-04-21 11:10 -34.89629 138.45006 1013 ft 131 kts 231°
2026-04-21 11:10 -34.90197 138.44141 1012 ft 130 kts 231°
2026-04-21 11:10 -34.90762 138.43279 1013 ft 130 kts 231°
2026-04-21 11:10 -34.91259 138.42368 1011 ft 129 kts 244°
2026-04-21 11:11 -34.91462 138.41317 1013 ft 129 kts 266°
2026-04-21 11:11 -34.91310 138.40242 1013 ft 130 kts 289°
2026-04-21 11:11 -34.90822 138.39320 1013 ft 131 kts 311°
2026-04-21 11:11 -34.90068 138.38696 1013 ft 132 kts 334°
2026-04-21 11:12 -34.89165 138.38477 1012 ft 134 kts 357°
2026-04-21 11:12 -34.88255 138.38701 1012 ft 135 kts 20°
2026-04-21 11:12 -34.87476 138.39330 1008 ft 135 kts 38°
2026-04-21 11:12 -34.86766 138.40082 1017 ft 136 kts 38°
2026-04-21 11:13 -34.86050 138.40835 1015 ft 136 kts 38°
2026-04-21 11:13 -34.85330 138.41587 1013 ft 136 kts 38°
2026-04-21 11:13 -34.84613 138.42340 1013 ft 136 kts 38°
2026-04-21 11:13 -34.83898 138.43094 1013 ft 136 kts 38°
2026-04-21 11:14 -34.83179 138.43848 1014 ft 137 kts 38°
2026-04-21 11:14 -34.82470 138.44592 1012 ft 136 kts 38°
2026-04-21 11:14 -34.81755 138.45345 1013 ft 136 kts 38°
2026-04-21 11:14 -34.81041 138.46098 1014 ft 136 kts 38°
2026-04-21 11:15 -34.80322 138.46856 1013 ft 137 kts 38°
2026-04-21 11:15 -34.79600 138.47613 1012 ft 137 kts 38°
2026-04-21 11:15 -34.78880 138.48367 1013 ft 137 kts 38°
2026-04-21 11:15 -34.78161 138.49124 1014 ft 137 kts 38°
2026-04-21 11:16 -34.77441 138.49884 1014 ft 137 kts 38°
2026-04-21 11:16 -34.76718 138.50642 1002 ft 135 kts 37°
2026-04-21 11:16 -34.76033 138.51350 1004 ft 124 kts 37°
2026-04-21 11:16 -34.75402 138.52010 1007 ft 115 kts 38°
2026-04-21 11:17 -34.74822 138.52628 1011 ft 107 kts 38°
2026-04-21 11:17 -34.74274 138.53220 1015 ft 104 kts 38°
2026-04-21 11:17 -34.73743 138.53796 1014 ft 101 kts 38°
2026-04-21 11:17 -34.73230 138.54355 1015 ft 100 kts 38°
2026-04-21 11:18 -34.72723 138.54903 922 ft 93 kts 37°
2026-04-21 11:18 -34.72270 138.55407 811 ft 84 kts 38°
2026-04-21 11:18 -34.71863 138.55870 675 ft 76 kts 38°
2026-04-21 11:18 -34.71493 138.56297 543 ft 70 kts 38°
2026-04-21 11:19 -34.71155 138.56703 407 ft 67 kts 43°
2026-04-21 11:19 -34.70938 138.57205 375 ft 68 kts 72°
2026-04-21 11:19 -34.70893 138.57778 387 ft 68 kts 85°
2026-04-21 11:19 -34.70901 138.58356 452 ft 70 kts 92°
2026-04-21 11:20 -34.71003 138.58978 406 ft 82 kts 106°
2026-04-21 11:20 -34.71166 138.59680 359 ft 90 kts 97°
2026-04-21 11:20 -34.71219 138.60448 304 ft 90 kts 91°
2026-04-21 11:20 -34.71242 138.61159 277 ft 78 kts 89°
2026-04-21 11:21 -34.71265 138.61724 219 ft 59 kts 87°
2026-04-21 11:21 -34.71239 138.62166 164 ft 47 kts 75°
2026-04-21 11:21 -34.71025 138.62451 116 ft 45 kts 53°
2026-04-21 11:21 -34.70928 138.62755 69 ft 25 kts 64°
2026-04-21 11:22 -34.70918 138.62819 58 ft 0 kts 69°